Time,TemperatureF,DewpointF,PressureIn,WindDirection,WindDirectionDegrees,WindSpeedMPH,WindSpeedGustMPH,Humidity,HourlyPrecipIn,Conditions,Clouds,dailyrainin,SoftwareType,DateUTC
2013-04-01 00:00:00,45.0,45.0,30.10,West,280,9.0,-999.0,97,-99.99,,,-99.99,,2013-04-01 00:00:00,
2013-04-01 00:21:00,45.0,45.0,30.10,West,280,9.0,-999.0,97,-99.99,,,-99.99,,2013-04-01 00:21:00,
2013-04-01 00:31:00,45.0,45.0,30.10,West,280,9.0,-999.0,97,-99.99,,,-99.99,,2013-04-01 00:31:00,
2013-04-01 00:41:00,45.0,45.0,30.10,West,280,9.0,-999.0,97,-99.99,,,-99.99,,2013-04-01 00:41:00,
2013-04-01 00:51:00,45.0,45.0,30.10,West,280,9.0,-999.0,97,-99.99,,,-99.99,,2013-04-01 00:51:00,
2013-04-01 01:00:00,46.0,45.0,30.08,WNW,290,14.0,-999.0,97,-99.99,,,-99.99,,2013-04-01 01:00:00,
2013-04-01 01:21:00,46.0,45.0,30.08,WNW,290,14.0,-999.0,97,-99.99,,,-99.99,,2013-04-01 01:21:00,
2013-04-01 01:31:00,46.0,45.0,30.08,WNW,290,14.0,-999.0,97,-99.99,,,-99.99,,2013-04-01 01:31:00,
2013-04-01 01:41:00,46.0,45.0,30.08,WNW,290,14.0,-999.0,97,-99.99,,,-99.99,,2013-04-01 01:41:00,
2013-04-01 01:52:00,46.0,45.0,30.08,WNW,290,14.0,-999.0,97,-99.99,,,-99.99,,2013-04-01 01:52:00,
2013-04-01 02:00:00,46.0,46.0,30.06,WNW,290,14.0,-999.0,99,-99.99,,,-99.99,,2013-04-01 02:00:00,
2013-04-01 02:32:00,46.0,46.0,30.06,WNW,290,14.0,-999.0,99,-99.99,,,-99.99,,2013-04-01 02:32:00,
2013-04-01 02:42:00,46.0,46.0,30.06,WNW,290,14.0,-999.0,99,-99.99,,,-99.99,,2013-04-01 02:42:00,
2013-04-01 02:52:00,46.0,46.0,30.06,WNW,290,14.0,-999.0,99,-99.99,,,-99.99,,2013-04-01 02:52:00,
2013-04-01 03:00:00,46.0,46.0,30.05,West,270,8.0,-999.0,99,-99.99,,,-99.99,,2013-04-01 03:00:00,
2013-04-01 03:21:00,46.0,46.0,30.05,West,270,8.0,-999.0,99,-99.99,,,-99.99,,2013-04-01 03:21:00,
2013-04-01 03:32:00,46.0,46.0,30.05,West,270,8.0,-999.0,99,-99.99,,,-99.99,,2013-04-01 03:32:00,
2013-04-01 03:42:00,46.0,46.0,30.05,West,270,8.0,-999.0,99,-99.99,,,-99.99,,2013-04-01 03:42:00,
2013-04-01 03:52:00,46.0,46.0,30.05,West,270,8.0,-999.0,99,-99.99,,,-99.99,,2013-04-01 03:52:00,
2013-04-01 04:00:00,46.0,46.0,30.04,North,0,0.0,-999.0,99,-99.99,,,-99.99,,2013-04-01 04:00:00,
2013-04-01 04:22:00,46.0,46.0,30.04,North,0,0.0,-999.0,99,-99.99,,,-99.99,,2013-04-01 04:22:00,
2013-04-01 04:32:00,46.0,46.0,30.04,North,0,0.0,-999.0,99,-99.99,,,-99.99,,2013-04-01 04:32:00,
2013-04-01 04:42:00,46.0,46.0,30.04,North,0,0.0,-999.0,99,-99.99,,,-99.99,,2013-04-01 04:42:00,
2013-04-01 04:52:00,46.0,46.0,30.04,North,0,0.0,-999.0,99,-99.99,,,-99.99,,2013-04-01 04:52:00,
2013-04-01 05:00:00,46.0,46.0,30.04,WNW,290,3.0,-999.0,99,-99.99,,,-99.99,,2013-04-01 05:00:00,
2013-04-01 05:21:00,46.0,46.0,30.04,WNW,290,3.0,-999.0,99,-99.99,,,-99.99,,2013-04-01 05:21:00,
2013-04-01 05:31:00,46.0,46.0,30.04,WNW,290,3.0,-999.0,99,-99.99,,,-99.99,,2013-04-01 05:31:00,
2013-04-01 05:42:00,46.0,46.0,30.04,WNW,290,3.0,-999.0,99,-99.99,,,-99.99,,2013-04-01 05:42:00,
2013-04-01 05:52:00,46.0,46.0,30.04,WNW,290,3.0,-999.0,99,-99.99,,,-99.99,,2013-04-01 05:52:00,
2013-04-01 06:00:00,46.0,46.0,30.03,West,280,5.0,-999.0,99,-99.99,,,-99.99,,2013-04-01 06:00:00,
2013-04-01 06:22:00,46.0,46.0,30.03,West,280,5.0,-999.0,99,-99.99,,,-99.99,,2013-04-01 06:22:00,
2013-04-01 06:32:00,46.0,46.0,30.03,West,280,5.0,-999.0,99,-99.99,,,-99.99,,2013-04-01 06:32:00,
2013-04-01 06:42:00,46.0,46.0,30.03,West,280,5.0,-999.0,99,-99.99,,,-99.99,,2013-04-01 06:42:00,
2013-04-01 06:52:00,46.0,46.0,30.03,West,280,5.0,-999.0,99,-99.99,,,-99.99,,2013-04-01 06:52:00,
2013-04-01 07:00:00,46.0,46.0,30.03,NW,310,7.0,-999.0,98,-99.99,,,-99.99,,2013-04-01 07:00:00,
2013-04-01 07:21:00,46.0,46.0,30.03,NW,310,7.0,-999.0,98,-99.99,,,-99.99,,2013-04-01 07:21:00,
2013-04-01 07:31:00,46.0,46.0,30.03,NW,310,7.0,-999.0,98,-99.99,,,-99.99,,2013-04-01 07:31:00,
2013-04-01 07:42:00,46.0,46.0,30.03,NW,310,7.0,-999.0,98,-99.99,,,-99.99,,2013-04-01 07:42:00,
2013-04-01 07:51:00,46.0,46.0,30.03,NW,310,7.0,-999.0,98,-99.99,,,-99.99,,2013-04-01 07:51:00,
2013-04-01 08:00:00,45.0,45.0,30.01,West,260,5.0,-999.0,98,-99.99,,,-99.99,,2013-04-01 08:00:00,
2013-04-01 08:21:00,45.0,45.0,30.01,West,260,5.0,-999.0,98,-99.99,,,-99.99,,2013-04-01 08:21:00,
2013-04-01 08:31:00,45.0,45.0,30.01,West,260,5.0,-999.0,98,-99.99,,,-99.99,,2013-04-01 08:31:00,
2013-04-01 08:42:00,45.0,45.0,30.01,West,260,5.0,-999.0,98,-99.99,,,-99.99,,2013-04-01 08:42:00,
2013-04-01 09:00:00,45.0,45.0,30.00,NW,310,2.0,-999.0,99,-99.99,,,-99.99,,2013-04-01 09:00:00,
2013-04-01 09:21:00,45.0,45.0,30.00,NW,310,2.0,-999.0,99,-99.99,,,-99.99,,2013-04-01 09:21:00,
2013-04-01 09:32:00,45.0,45.0,30.00,NW,310,2.0,-999.0,99,-99.99,,,-99.99,,2013-04-01 09:32:00,
2013-04-01 09:42:00,45.0,45.0,30.00,NW,310,2.0,-999.0,99,-99.99,,,-99.99,,2013-04-01 09:42:00,
2013-04-01 09:52:00,45.0,45.0,30.00,NW,310,2.0,-999.0,99,-99.99,,,-99.99,,2013-04-01 09:52:00,
2013-04-01 10:00:00,45.0,45.0,30.00,East,80,3.0,-999.0,99,-99.99,,,-99.99,,2013-04-01 10:00:00,
2013-04-01 10:22:00,45.0,45.0,30.00,East,80,3.0,-999.0,99,-99.99,,,-99.99,,2013-04-01 10:22:00,
2013-04-01 10:32:00,45.0,45.0,30.00,East,80,3.0,-999.0,99,-99.99,,,-99.99,,2013-04-01 10:32:00,
2013-04-01 10:41:00,45.0,45.0,30.00,East,80,3.0,-999.0,99,-99.99,,,-99.99,,2013-04-01 10:41:00,
2013-04-01 10:52:00,45.0,45.0,30.00,East,80,3.0,-999.0,99,-99.99,,,-99.99,,2013-04-01 10:52:00,
2013-04-01 11:00:00,44.0,44.0,29.98,East,80,1.0,-999.0,99,-99.99,,,-99.99,,2013-04-01 11:00:00,
2013-04-01 11:22:00,44.0,44.0,29.98,East,80,1.0,-999.0,99,-99.99,,,-99.99,,2013-04-01 11:22:00,
2013-04-01 11:32:00,44.0,44.0,29.98,East,80,1.0,-999.0,99,-99.99,,,-99.99,,2013-04-01 11:32:00,
2013-04-01 11:41:00,44.0,44.0,29.98,East,80,1.0,-999.0,99,-99.99,,,-99.99,,2013-04-01 11:41:00,
2013-04-01 11:52:00,44.0,44.0,29.98,East,80,1.0,-999.0,99,-99.99,,,-99.99,,2013-04-01 11:52:00,
2013-04-01 12:00:00,44.0,44.0,29.98,NW,320,7.0,-999.0,99,-99.99,,,-99.99,,2013-04-01 12:00:00,
2013-04-01 12:21:00,44.0,44.0,29.98,NW,320,7.0,-999.0,99,-99.99,,,-99.99,,2013-04-01 12:21:00,
2013-04-01 12:31:00,44.0,44.0,29.98,NW,320,7.0,-999.0,99,-99.99,,,-99.99,,2013-04-01 12:31:00,
2013-04-01 12:41:00,44.0,44.0,29.98,NW,320,7.0,-999.0,99,-99.99,,,-99.99,,2013-04-01 12:41:00,
2013-04-01 12:51:00,44.0,44.0,29.98,NW,320,7.0,-999.0,99,-99.99,,,-99.99,,2013-04-01 12:51:00,
2013-04-01 13:00:00,44.0,44.0,29.98,NNW,340,5.0,-999.0,98,-99.99,,,-99.99,,2013-04-01 13:00:00,
2013-04-01 13:21:00,44.0,44.0,29.98,NNW,340,5.0,-999.0,98,-99.99,,,-99.99,,2013-04-01 13:21:00,
2013-04-01 13:31:00,44.0,44.0,29.98,NNW,340,5.0,-999.0,98,-99.99,,,-99.99,,2013-04-01 13:31:00,
2013-04-01 13:41:00,44.0,44.0,29.98,NNW,340,5.0,-999.0,98,-99.99,,,-99.99,,2013-04-01 13:41:00,
2013-04-01 13:52:00,44.0,44.0,29.98,NNW,340,5.0,-999.0,98,-99.99,,,-99.99,,2013-04-01 13:52:00,
2013-04-01 14:00:00,44.0,43.0,29.98,South,170,2.0,-999.0,99,-99.99,,,-99.99,,2013-04-01 14:00:00,
2013-04-01 14:21:00,44.0,43.0,29.98,South,170,2.0,-999.0,99,-99.99,,,-99.99,,2013-04-01 14:21:00,
2013-04-01 14:41:00,44.0,43.0,29.98,South,170,2.0,-999.0,99,-99.99,,,-99.99,,2013-04-01 14:41:00,
2013-04-01 14:51:00,44.0,43.0,29.98,South,170,2.0,-999.0,99,-99.99,,,-99.99,,2013-04-01 14:51:00,
2013-04-01 15:00:00,43.0,43.0,29.98,SSW,210,1.0,-999.0,99,-99.99,,,-99.99,,2013-04-01 15:00:00,
2013-04-01 15:22:00,43.0,43.0,29.98,SSW,210,1.0,-999.0,99,-99.99,,,-99.99,,2013-04-01 15:22:00,
2013-04-01 15:33:00,43.0,43.0,29.98,SSW,210,1.0,-999.0,99,-99.99,,,-99.99,,2013-04-01 15:33:00,
2013-04-01 15:42:00,43.0,43.0,29.98,SSW,210,1.0,-999.0,99,-99.99,,,-99.99,,2013-04-01 15:42:00,
2013-04-01 15:53:00,43.0,43.0,29.98,SSW,210,1.0,-999.0,99,-99.99,,,-99.99,,2013-04-01 15:53:00,
2013-04-01 16:00:00,45.0,45.0,29.98,NNW,330,5.0,-999.0,99,-99.99,,,-99.99,,2013-04-01 16:00:00,
2013-04-01 16:22:00,45.0,45.0,29.98,NNW,330,5.0,-999.0,99,-99.99,,,-99.99,,2013-04-01 16:22:00,
2013-04-01 16:32:00,45.0,45.0,29.98,NNW,330,5.0,-999.0,99,-99.99,,,-99.99,,2013-04-01 16:32:00,
2013-04-01 16:41:00,45.0,45.0,29.98,NNW,330,5.0,-999.0,99,-99.99,,,-99.99,,2013-04-01 16:41:00,
2013-04-01 16:51:00,45.0,45.0,29.98,NNW,330,5.0,-999.0,99,-99.99,,,-99.99,,2013-04-01 16:51:00,
2013-04-01 17:00:00,44.0,44.0,29.99,West,260,7.0,-999.0,99,-99.99,,,-99.99,,2013-04-01 17:00:00,
2013-04-01 17:22:00,44.0,44.0,29.99,West,260,7.0,-999.0,99,-99.99,,,-99.99,,2013-04-01 17:22:00,
2013-04-01 17:31:00,44.0,44.0,29.99,West,260,7.0,-999.0,99,-99.99,,,-99.99,,2013-04-01 17:31:00,
2013-04-01 17:41:00,44.0,44.0,29.99,West,260,7.0,-999.0,99,-99.99,,,-99.99,,2013-04-01 17:41:00,
2013-04-01 17:51:00,44.0,44.0,29.99,West,260,7.0,-999.0,99,-99.99,,,-99.99,,2013-04-01 17:51:00,
2013-04-01 18:00:00,44.0,44.0,30.01,West,270,13.0,-999.0,98,-99.99,,,-99.99,,2013-04-01 18:00:00,
2013-04-01 18:21:00,44.0,44.0,30.01,West,270,13.0,-999.0,98,-99.99,,,-99.99,,2013-04-01 18:21:00,
2013-04-01 18:31:00,44.0,44.0,30.01,West,270,13.0,-999.0,98,-99.99,,,-99.99,,2013-04-01 18:31:00,
2013-04-01 18:41:00,44.0,44.0,30.01,West,270,13.0,-999.0,98,-99.99,,,-99.99,,2013-04-01 18:41:00,
2013-04-01 18:51:00,44.0,44.0,30.01,West,270,13.0,-999.0,98,-99.99,,,-99.99,,2013-04-01 18:51:00,
2013-04-01 19:00:00,44.0,44.0,30.03,West,270,9.0,-999.0,99,-99.99,,,-99.99,,2013-04-01 19:00:00,
2013-04-01 19:21:00,44.0,44.0,30.03,West,270,9.0,-999.0,99,-99.99,,,-99.99,,2013-04-01 19:21:00,
2013-04-01 19:31:00,44.0,44.0,30.03,West,270,9.0,-999.0,99,-99.99,,,-99.99,,2013-04-01 19:31:00,
2013-04-01 19:41:00,44.0,44.0,30.03,West,270,9.0,-999.0,99,-99.99,,,-99.99,,2013-04-01 19:41:00,
2013-04-01 19:52:00,44.0,44.0,30.03,West,270,9.0,-999.0,99,-99.99,,,-99.99,,2013-04-01 19:52:00,
2013-04-01 20:00:00,45.0,45.0,30.04,WNW,300,9.0,-999.0,99,-99.99,,,-99.99,,2013-04-01 20:00:00,
2013-04-01 20:21:00,45.0,45.0,30.04,WNW,300,9.0,-999.0,99,-99.99,,,-99.99,,2013-04-01 20:21:00,
2013-04-01 20:32:00,45.0,45.0,30.04,WNW,300,9.0,-999.0,99,-99.99,,,-99.99,,2013-04-01 20:32:00,
2013-04-01 20:42:00,45.0,45.0,30.04,WNW,300,9.0,-999.0,99,-99.99,,,-99.99,,2013-04-01 20:42:00,
2013-04-01 20:51:00,45.0,45.0,30.04,WNW,300,9.0,-999.0,99,-99.99,,,-99.99,,2013-04-01 20:51:00,
2013-04-01 21:00:00,45.0,45.0,30.05,NW,320,9.0,-999.0,99,-99.99,,,-99.99,,2013-04-01 21:00:00,
2013-04-01 21:22:00,45.0,45.0,30.05,NW,320,9.0,-999.0,99,-99.99,,,-99.99,,2013-04-01 21:22:00,
2013-04-01 21:32:00,45.0,45.0,30.05,NW,320,9.0,-999.0,99,-99.99,,,-99.99,,2013-04-01 21:32:00,
2013-04-01 21:43:00,45.0,45.0,30.05,NW,320,9.0,-999.0,99,-99.99,,,-99.99,,2013-04-01 21:43:00,
2013-04-01 21:52:00,45.0,45.0,30.05,NW,320,9.0,-999.0,99,-99.99,,,-99.99,,2013-04-01 21:52:00,
2013-04-01 22:00:00,44.0,44.0,30.05,WNW,290,13.0,-999.0,99,-99.99,,,-99.99,,2013-04-01 22:00:00,
2013-04-01 22:22:00,44.0,44.0,30.05,WNW,290,13.0,-999.0,99,-99.99,,,-99.99,,2013-04-01 22:22:00,
2013-04-01 22:32:00,44.0,44.0,30.05,WNW,290,13.0,-999.0,99,-99.99,,,-99.99,,2013-04-01 22:32:00,
2013-04-01 22:42:00,44.0,44.0,30.05,WNW,290,13.0,-999.0,99,-99.99,,,-99.99,,2013-04-01 22:42:00,
2013-04-01 22:52:00,44.0,44.0,30.05,WNW,290,13.0,-999.0,99,-99.99,,,-99.99,,2013-04-01 22:52:00,
2013-04-01 23:00:00,45.0,44.0,30.06,West,280,14.0,-999.0,98,-99.99,,,-99.99,,2013-04-01 23:00:00,
2013-04-01 23:21:00,45.0,44.0,30.06,West,280,14.0,-999.0,98,-99.99,,,-99.99,,2013-04-01 23:21:00,
2013-04-01 23:32:00,45.0,44.0,30.06,West,280,14.0,-999.0,98,-99.99,,,-99.99,,2013-04-01 23:32:00,
2013-04-01 23:42:00,45.0,44.0,30.06,West,280,14.0,-999.0,98,-99.99,,,-99.99,,2013-04-01 23:42:00,
2013-04-01 23:52:00,45.0,44.0,30.06,West,280,14.0,-999.0,98,-99.99,,,-99.99,,2013-04-01 23:52:00,